Location: Asheville, NC
(35.6000°N, 82.5500°W)
Time: 09:41:51
(UTC-04:00)

CUBEBUG 2 - Pass Details

Date: 13 March 2018
Orbit: 586 x 700 km, 97.6° (Epoch: 24 June)

Event Time Altitude Azimuth Distance (km) Brightness Sun altitude
Rises 20:11:26 0° 178° (S) 3,023 ? -8.0°
Reaches altitude 10° 20:13:44 10° 183° (S) 2,097 ? -8.5°
Maximum altitude 20:18:13 52° 260° (W) 820 ? -9.4°
Drops below altitude 10° 20:22:34 10° 337° (NNW) 2,044 ? -10.3°
Sets 20:24:48 0° 343° (NNW) 2,939 ? -10.7°
